Погода в Житомире

Хотите узнать прогноз погоды в Житомире? Тогда Вам сюда: Погода в Житомире

Поиск расширенной информации на нашем сайте:

Полезная информация:

Новости сайта



02.01.2020
Опубликован Долгосрочный прогноз погоды по городам России и ближнего зарубежья на январь 2020 года.
Карты: Прогноз на январь и февраль 2020 года, Сравнение прогнозируемой аномалии приземной температуры воздуха на январь 2020 года по разным моделям.




Погода в Житомире - сегодня

Время (UTC), дата Ветер
(°,м/с) 
Видим.   Явления Облачность Т
(°С)
Тd
(°С)
f(%) Тe
(°С)
Pmin
(гПа)
dP
(гПа)
Po
(мм)
O2
(г/м3)
Тmin Tmax R s Состояние
почвы
15 09.08.20 тихо ()   10 км    8/3 1000 м верхняя 
[Cu med, cong|Ci fib]
+27.7 +14.7 45 +36  1015  -1.3  743  269           
18 09.08.20 тихо ()   10 км    6/1 600 м кучево-дожд., средняя, верхняя 
[Cb cap|Ac trans|Ci fib]
+22.7 +15.2 63 +32  1015.8  0.3  743  273    +28.7       
21 09.08.20 тихо ()   10 км    4/0 средняя 
[Ac trans]
+19.4 +15.9 80 +30  1016  743  276           
00 10.08.20 тихо ()   10 км    10/0 средняя 
[Ac und]
+18.8 +15.6 82 +29  1016  -0.1  743  277           
03 10.08.20 330 (СЗ) 4000 м  слаб. ливневой дождь  10/8 800 м кучево-дожд., средняя 
[Cb cap|Ac As]
+19 +14.7 76 +29  1016.6  0.6  743  277           
06 10.08.20 тихо ()   10 км  в посл. час ливневой дождь  9/6 750 м кучево-дожд., средняя 
[Cb cap|Ac trans]
+18.8 +16.8 88 +31  1017  0.4  744  277  +16.8       
09 10.08.20 тихо ()   10 км    4/0 средняя, верхняя 
[Ac cast|Cc]
+24.9 +16.1 58 +36  1016.3  -0.2  743  271           
12 10.08.20 340 (С) 10 км    6/4 1000 м кучево-дожд., средняя 
[Cb calv|Ac cuf]
+26.3 +15.5 51 +36  1014.7  -1.4  742  270           
15 10.08.20 130 (ЮВ) 10 км  в посл. час гроза{ливн. осадки}  8/4 600 м кучево-дожд., средняя 
[Cb calv|Ac cuf]
+20.4 +17 81 +33  1016.3  743  275           
18 10.08.20 тихо ()   10 км  {гроза, ливн. осадки}  6/0 средняя, верхняя 
[Ac cast|Cs]
+18.4 +16.4 88 +30  1016.1  -0.3  743  277    +28.2     
21 10.08.20 тихо ()   4000 м  дымка  ясно 
+17.2 +16.2 94 +28  1016.7  0.4  743  278           
00 11.08.20 тихо ()   4000 м  дымка  ясно 
+15.6 +15.1 97 +25  1016.6  -0.2  743  280           
03 11.08.20 тихо ()   4000 м  дымка  ясно 
+14.8 +14.1 96 +22  1016.7  743  281           
06 11.08.20 тихо ()   10 км    ясно 
+20.2 +16.9 81 +33  1016.5  0.3  743  275  +14.4         
09 11.08.20 360 (С) 10 км    3/3 1000 м 
[Cu med, cong]
+25.8 +17 58 +38  1015.4  -0.6  743  270           
12 11.08.20 230 (ЮЗ) 10 км  гроза, ливневой дождь  8/6 840 м кучево-дожд., верхняя 
[Cb calv|Ci fib]
+23.2 +16.5 66 +35  1015.2  -0.4  743  272         
15 11.08.20 тихо ()   10 км  {гроза, ливн. осадки}  6/3 600 м кучево-дожд., средняя, верхняя 
[Cb calv|Ac cuf|Ci fib]
+24.5 +15.6 58 +35  1014.3  -0.8  742  271           
18 11.08.20 тихо ()   10 км  {гроза, ливн. осадки}  6/3 600 м кучево-дожд., средняя, верхняя 
[Cb calv|Ac trans|Ci ing]
+19.9 +17.1 84 +33  1015.1  0.4  742  275    +27.9     
21 11.08.20 360 (С) 10 км    3/0 средняя 
[Ac trans]
+19.3 +17.5 89 +35  1015.2  0.1  742  275           
00 12.08.20 тихо ()   4000 м  дымка  ясно 
+16.2 +14.8 91 +25  1016.1  0.6  743  279           
03 12.08.20 тихо ()   4000 м  дымка  8/5 800 м кучево-дожд., верхняя 
[Cb cap|Ci fib]
+14.6 +13 90 +20  1017.2  0.9  743  282           
06 12.08.20 010 (С) 10 км    ясно 
+16.9 +10.8 67 +20  1018.3  1.2  744  280  +14         
09 12.08.20 020 (С) 10 км    4/4 1000 м 
[Cu hum]
+20.2 +10.9 55 +23  1018.4  0.4  745  277           
12 12.08.20 350 (С) 10 км    8/8 900 м 
[Sc diur, vesp]
+21.7 +9.7 46 +23  1017.9  -0.4  744  276           
15 12.08.20 360 (С) 10 км    9/9 800 м кучево-дожд. 
[Cb cap]
+20.6 +10.6 53 +23  1018  0.1  744  277           
Время (UTC), дата Ветер
(°,м/с) 
Видим.   Явления Облачность Т
(°С)
Тd
(°С)
f(%) Тe
(°С)
Pmin
(гПа)
dP
(гПа)
Po
(мм)
O2
(г/м3)
Тmin Tmax R s Состояние
почвы

Для получения пояснительной информации подведите курсор к названию столбца.

ПОГОДА в Житомире - архив

Всё, что Вы хотите узнать о погоде в Житомире - удобно и подробно!

Выберите нужную дату (начиная с 1 января 2019* года) и нажмите кнопку "Найти".
Будут отображены архивные сводки погоды по пункту Житомир, начиная с указанной даты.


Отображать данные в формате CSV (для использования в таблицах Excel)


Внимание! Наш архив погоды предназначен исключительно для личного некоммерческого использования в познавательных целях. Если Вам необходимы официальные справки о состоянии погоды (для производственных, юридических, коммерческих и т.п. целей), обращайтесь в органы Росгидромета.

*Примечание: данная дата относится к архиву по метеостанциям СССР (Россия, СНГ, Балтия).
Архив по метеостанциям Зарубежной Европы и Азии (кроме Китая) хранится 10 дней, по другим регионам земного шара (Китай, Африка, Америка, Австралия, Океания) - 1 день.

Житомир - район местоположения метеостанции


Название, широта, долгота, высота метеостанции:
Житомир 50.2°ш. 28.7°д. 224 м над ур. моря [Украина]

Дополнительная информация

В oтличие oт бoльшинства пoгoдных сайтoв мы публикуем пoдрoбную метеoинфoрмацию в детальнoм прoфессиoнальнoм фoрмате.

Характеристики температуры и влажнoсти вoздуха измеряются на высoте 2 м в тени вдали oт зданий и деревьев.
Скoрoсть ветра измеряется на высoте 10 м (на урoвне рoста челoвека скoрoсть ветра ниже в 1.5-2 раза). Если метеoстанция нахoдится в гoрoде или в лесу, тo скoрoсть ветра занижена на 2-4 м/с пo сравнению с oткрытым местoм. Скoрoсть ветра над акватoриями крупных рек и oзёр, а также на вершинах хoлмoв на 2-5 м/с выше, чем в oбычных услoвиях.
Атмoсфернoе давление в разных тoчках местнoсти мoжет значительнo oтличаться oт давления на метеoстанции, в зависимoсти oт услoвий рельефа (при пoдъёме на 10 м давление пoнижается примернo на 1 мм рт.ст.).